QPF
0.00 0.00 0.00 0.00 0.00 0.00 0.00 0.00 0.00 0.00 0.00 0.00 0.00 0.00 0.00 0.00 0.00 0.00 0.00 0.00 0.00 0.00 0.00 0.00 0.00 0.00 0.00 0.00 0.00 0.00 0.00 0.00 0.00 0.00 0.00 0.00 0.00 0.00 0.00 0.00 0.00 0.00 0.00 0.00
0.00 0.00 0.00 0.00 0.00 0.00 0.00 0.00 0.00 0.00 0.00 0.00 0.00 0.00 0.00 0.00 0.00 0.00 0.00 0.00 0.00 0.00 0.00 0.00 0.00 0.00 0.00 0.00 0.00 0.00 0.00 0.00 0.00 0.00 0.00 0.00 0.00 0.00 0.00 0.00 0.00 0.00 0.00 0.00
0.00 0.00 0.00 0.00 0.00 0.00 0.00 0.00 0.00 0.00 0.00 0.00 0.00 0.00 0.00 0.00 0.00 0.00 0.00 0.00 0.00 0.00 0.00 0.00 0.00 0.00 0.00 0.00 0.00 0.00 0.00 0.00 0.00 0.00 0.00 0.00 0.00 0.00 0.00 0.00 0.00 0.00 0.00 0.00
0.00 0.00 0.00 0.00 0.00 0.00 0.00 0.00 0.00 0.00 0.00 0.00 0.00 0.00 0.00 0.00 0.00 0.00 0.00 0.00 0.00 0.00 0.00 0.00 0.00 0.00 0.00 0.00 0.00 0.00 0.00 0.00 0.00 0.00 0.00 0.00 0.00 0.00 0.00 0.00 0.00 0.00 0.00 0.00
0.00 0.00 0.00 0.00 0.00 0.00 0.00 0.00 0.00 0.00 0.00 0.00 0.00 0.00 0.00 0.00 0.00 0.00 0.00 0.00 0.00 0.00 0.00 0.00 0.00 0.00 0.00 0.00 0.00 0.00 0.00 0.00 0.00 0.00 0.00 0.00 0.00 0.00 0.00 0.00 0.00 0.00 0.00 0.00
0.00 0.00 0.00 0.00 0.00 0.00 0.00 0.00 0.00 0.00 0.00 0.00 0.00 0.00 0.00 0.00 0.00 0.00 0.00 0.00 0.00 0.00 0.00 0.00 0.00 0.00 0.00 0.00 0.00 0.00 0.00 0.00 0.00 0.00 0.00 0.00 0.00 0.00 0.00 0.00 0.00 0.00 0.00 0.00
0.00 0.00 0.00 0.00 0.00 0.00 0.00 0.00 0.00 0.00 0.00 0.00 0.00 0.00 0.00 0.00 0.00 0.00 0.00 0.00 0.00 0.00 0.00 0.00 0.00 0.00 0.00 0.00 0.00 0.00 0.00 0.00 0.00 0.00 0.00 0.00 0.00 0.00 0.00 0.00 0.00 0.00 0.00 0.00
0.00 0.00 0.00 0.00 0.00 0.00 0.00 0.00 0.00 0.00 0.00 0.00 0.00 0.00 0.00 0.00 0.00 0.00 0.00 0.00 0.00 0.00 0.00 0.00 0.00 0.00 0.00 0.00 0.00 0.00 0.00 0.00 0.00 0.00 0.00 0.00 0.00 0.00 0.00 0.00 0.00 0.00 0.00 0.00
0.00 0.00 0.00 0.00 0.00 0.00 0.00 0.00 0.00 0.00 0.00 0.00 0.00 0.00 0.00 0.00 0.00 0.00 0.00 0.00 0.00 0.00 0.00 0.00 0.00 0.00 0.00 0.00 0.00 0.00 0.00 0.00 0.00 0.00 0.00 0.00 0.00 0.00 0.00 0.00 0.00 0.00 0.00 0.00
0.00 0.00 0.00 0.00 0.00 0.00 0.00 0.00 0.00 0.00 0.00 0.00 0.00 0.00 0.00 0.00 0.00 0.00 0.00 0.00 0.00 0.00 0.00 0.00 0.00 0.00 0.00 0.00 0.00 0.00 0.00 0.00 0.00 0.00 0.00 0.00 0.00 0.00 0.00 0.00 0.00 0.00 0.00 0.00
0.00 0.00 0.00 0.00 0.00 0.00 0.00 0.00 0.00 0.00 0.00 0.00 0.00 0.00 0.00 0.00 0.00 0.00 0.00 0.00 0.00 0.00 0.00 0.00 0.00 0.00 0.00 0.00 0.00 0.00 0.00 0.00 0.00 0.00 0.00 0.00 0.00 0.00 0.00 0.00 0.00 0.00 0.00 0.00
0.00 0.00 0.00 0.00 0.00 0.00 0.00 0.00 0.00 0.00 0.00 0.00 0.00 0.00 0.00 0.00 0.00 0.00 0.00 0.00 0.00 0.00 0.00 0.00 0.00 0.00 0.00 0.00 0.00 0.00 0.00 0.00 0.00 0.00 0.00 0.00 0.00 0.00 0.00 0.00 0.00 0.00 0.00 0.00
0.00 0.00 0.01 0.00 0.00 0.00 0.00 0.00 0.00 0.00 0.00 0.00 0.00 0.00 0.00 0.00 0.00 0.00 0.00 0.00 0.00 0.00 0.00 0.00 0.00 0.00 0.00 0.00 0.00 0.00 0.00 0.00 0.00 0.00 0.00 0.00 0.00 0.00 0.00 0.00 0.00 0.00 0.00 0.00
0.00 0.01 0.01 0.00 0.00 0.00 0.00 0.00 0.00 0.00 0.00 0.00 0.00 0.00 0.00 0.00 0.00 0.00 0.00 0.00 0.00 0.00 0.00 0.00 0.00 0.00 0.00 0.00 0.00 0.00 0.00 0.00 0.00 0.00 0.00 0.00 0.00 0.00 0.00 0.00 0.00 0.00 0.00 0.00
0.00 0.01 0.00 0.00 0.00 0.00 0.00 0.00 0.00 0.00 0.00 0.00 0.00 0.00 0.00 0.00 0.00 0.00 0.00 0.00 0.00 0.00 0.00 0.00 0.00 0.00 0.00 0.00 0.00 0.00 0.00 0.00 0.00 0.00 0.00 0.00 0.00 0.00 0.00 0.00 0.00 0.00 0.00 0.00
0.03 0.03 0.01 0.00 0.00 0.00 0.01 0.01 0.00 0.00 0.00 0.00 0.00 0.00 0.00 0.00 0.00 0.00 0.00 0.00 0.00 0.00 0.00 0.00 0.00 0.00 0.00 0.00 0.00 0.00 0.00 0.00 0.00 0.00 0.00 0.00 0.00 0.00 0.00 0.00 0.00 0.00 0.00 0.00
0.14 0.13 0.08 0.03 0.00 0.03 0.09 0.04 0.00 0.00 0.00 0.00 0.00 0.00 0.00 0.00 0.00 0.00 0.00 0.00 0.00 0.00 0.00 0.00 0.00 0.00 0.00 0.00 0.00 0.00 0.00 0.00 0.00 0.00 0.00 0.00 0.00 0.00 0.00 0.00 0.00 0.00 0.00 0.00
0.20 0.21 0.20 0.14 0.08 0.12 0.08 0.01 0.00 0.00 0.00 0.00 0.00 0.00 0.00 0.00 0.00 0.00 0.00 0.00 0.00 0.00 0.00 0.00 0.00 0.00 0.00 0.00 0.00 0.00 0.00 0.00 0.00 0.00 0.00 0.00 0.00 0.00 0.00 0.00 0.00 0.00 0.00 0.00
0.10 0.15 0.27 0.36 0.32 0.19 0.03 0.00 0.00 0.00 0.00 0.00 0.00 0.00 0.00 0.00 0.00 0.00 0.00 0.00 0.00 0.00 0.00 0.00 0.00 0.00 0.00 0.00 0.00 0.00 0.00 0.00 0.00 0.00 0.00 0.00 0.00 0.00 0.00 0.00 0.00 0.00 0.00 0.00
0.06 0.11 0.26 0.48 0.52 0.27 0.02 0.00 0.00 0.00 0.00 0.00 0.00 0.00 0.00 0.00 0.00 0.00 0.00 0.00 0.00 0.00 0.00 0.00 0.00 0.00 0.00 0.00 0.00 0.00 0.00 0.00 0.00 0.00 0.00 0.00 0.00 0.00 0.00 0.00 0.00 0.00 0.00 0.00
0.03 0.10 0.25 0.41 0.44 0.23 0.02 0.00 0.00 0.00 0.00 0.00 0.00 0.00 0.00 0.00 0.00 0.00 0.00 0.00 0.00 0.00 0.00 0.00 0.00 0.00 0.00 0.00 0.00 0.00 0.00 0.00 0.00 0.00 0.00 0.00 0.00 0.00 0.00 0.00 0.00 0.00 0.00 0.00
0.02 0.06 0.14 0.19 0.30 0.23 0.03 0.00 0.00 0.00 0.00 0.00 0.00 0.00 0.00 0.00 0.00 0.00 0.00 0.00 0.00 0.00 0.00 0.00 0.00 0.00 0.00 0.00 0.00 0.00 0.00 0.00 0.01 0.01 0.00 0.00 0.00 0.00 0.00 0.00 0.00 0.00 0.00 0.00
0.04 0.06 0.08 0.10 0.16 0.10 0.02 0.01 0.00 0.00 0.00 0.00 0.00 0.00 0.00 0.00 0.00 0.00 0.00 0.00 0.00 0.00 0.00 0.00 0.01 0.01 0.01 0.01 0.00 0.01 0.01 0.01 0.01 0.01 0.00 0.00 0.00 0.00 0.00 0.00 0.00 0.00 0.00 0.00
0.03 0.04 0.07 0.14 0.16 0.12 0.07 0.04 0.03 0.02 0.01 0.01 0.00 0.00 0.00 0.00 0.00 0.00 0.00 0.01 0.01 0.01 0.01 0.01 0.01 0.01 0.01 0.01 0.00 0.00 0.00 0.00 0.00 0.00 0.00 0.00 0.00 0.00 0.00 0.00 0.00 0.00 0.00 0.00
0.05 0.07 0.10 0.14 0.13 0.11 0.09 0.07 0.06 0.05 0.03 0.02 0.01 0.00 0.00 0.00 0.00 0.00 0.00 0.01 0.01 0.01 0.01 0.00 0.00 0.00 0.00 0.00 0.00 0.00 0.00 0.00 0.00 0.00 0.00 0.00 0.00 0.00 0.00 0.00 0.00 0.00 0.00 0.00
0.04 0.05 0.06 0.07 0.06 0.05 0.05 0.05 0.05 0.05 0.04 0.03 0.01 0.01 0.00 0.00 0.00 0.00 0.00 0.00 0.00 0.00 0.00 0.00 0.00 0.00 0.00 0.00 0.00 0.00 0.00 0.00 0.00 0.00 0.00 0.00 0.00 0.00 0.00 0.00 0.00 0.00 0.00 0.00
MSLP
1019.89 1020.35 1020.72 1020.98 1021.15 1021.27 1021.34 1021.40 1021.46 1021.49 1021.50 1021.45 1021.34 1021.15 1020.91 1020.65 1020.41 1020.25 1020.22 1020.34 1020.64 1021.07 1021.61 1022.17 1022.69 1023.11 1023.40 1023.54 1023.58 1023.55 1023.53 1023.58 1023.75 1024.07 1024.52 1025.06 1025.63 1026.17 1026.62 1026.95 1027.15 1027.25 1027.30 1027.34
1020.21 1020.56 1020.80 1020.95 1021.06 1021.17 1021.29 1021.43 1021.58 1021.71 1021.76 1021.71 1021.51 1021.18 1020.73 1020.23 1019.76 1019.41 1019.23 1019.29 1019.59 1020.09 1020.73 1021.42 1022.06 1022.59 1022.95 1023.15 1023.22 1023.23 1023.25 1023.37 1023.63 1024.05 1024.62 1025.28 1025.97 1026.60 1027.12 1027.48 1027.70 1027.81 1027.86 1027.90
1020.27 1020.49 1020.62 1020.71 1020.80 1020.94 1021.15 1021.41 1021.68 1021.90 1021.99 1021.90 1021.59 1021.08 1020.40 1019.65 1018.94 1018.37 1018.06 1018.04 1018.34 1018.90 1019.64 1020.46 1021.23 1021.87 1022.33 1022.61 1022.74 1022.80 1022.89 1023.08 1023.44 1023.96 1024.64 1025.41 1026.20 1026.91 1027.50 1027.91 1028.18 1028.31 1028.39 1028.46
1020.05 1020.16 1020.21 1020.26 1020.39 1020.61 1020.94 1021.34 1021.74 1022.05 1022.17 1022.03 1021.59 1020.88 1019.96 1018.95 1017.99 1017.23 1016.77 1016.69 1016.98 1017.60 1018.44 1019.37 1020.27 1021.03 1021.59 1021.96 1022.17 1022.31 1022.47 1022.74 1023.18 1023.80 1024.57 1025.42 1026.29 1027.07 1027.72 1028.20 1028.52 1028.71 1028.83 1028.95
1019.57 1019.58 1019.59 1019.66 1019.85 1020.19 1020.67 1021.23 1021.76 1022.14 1022.28 1022.07 1021.50 1020.59 1019.45 1018.19 1017.02 1016.08 1015.50 1015.35 1015.65 1016.31 1017.24 1018.28 1019.29 1020.16 1020.83 1021.28 1021.58 1021.79 1022.03 1022.37 1022.88 1023.57 1024.40 1025.32 1026.24 1027.08 1027.78 1028.32 1028.70 1028.95 1029.15 1029.33
1018.90 1018.84 1018.82 1018.94 1019.23 1019.71 1020.34 1021.04 1021.69 1022.14 1022.26 1021.99 1021.30 1020.22 1018.88 1017.44 1016.09 1015.02 1014.36 1014.18 1014.48 1015.19 1016.19 1017.32 1018.42 1019.38 1020.13 1020.66 1021.03 1021.32 1021.61 1022.01 1022.57 1023.30 1024.16 1025.11 1026.06 1026.93 1027.67 1028.26 1028.71 1029.04 1029.32 1029.58
1018.11 1018.00 1018.00 1018.18 1018.57 1019.18 1019.95 1020.77 1021.49 1021.97 1022.09 1021.75 1020.95 1019.75 1018.28 1016.72 1015.27 1014.14 1013.45 1013.27 1013.59 1014.35 1015.41 1016.59 1017.76 1018.78 1019.58 1020.18 1020.60 1020.93 1021.27 1021.70 1022.28 1023.02 1023.89 1024.84 1025.79 1026.67 1027.43 1028.06 1028.57 1028.99 1029.35 1029.71
1017.29 1017.17 1017.20 1017.44 1017.93 1018.64 1019.50 1020.38 1021.13 1021.61 1021.68 1021.29 1020.42 1019.15 1017.62 1016.03 1014.59 1013.47 1012.81 1012.68 1013.05 1013.85 1014.95 1016.16 1017.35 1018.39 1019.23 1019.84 1020.30 1020.65 1021.02 1021.46 1022.04 1022.77 1023.62 1024.54 1025.47 1026.34 1027.11 1027.77 1028.34 1028.83 1029.28 1029.74
1016.50 1016.40 1016.48 1016.79 1017.34 1018.10 1018.98 1019.86 1020.58 1021.01 1021.02 1020.57 1019.67 1018.40 1016.90 1015.38 1014.02 1013.00 1012.44 1012.40 1012.84 1013.68 1014.79 1016.01 1017.18 1018.21 1019.03 1019.65 1020.10 1020.47 1020.84 1021.28 1021.85 1022.56 1023.37 1024.25 1025.14 1025.99 1026.76 1027.45 1028.05 1028.61 1029.15 1029.69
1015.77 1015.73 1015.87 1016.24 1016.81 1017.56 1018.40 1019.20 1019.82 1020.14 1020.07 1019.58 1018.67 1017.46 1016.07 1014.69 1013.51 1012.66 1012.26 1012.34 1012.86 1013.74 1014.84 1016.03 1017.16 1018.14 1018.92 1019.51 1019.95 1020.32 1020.69 1021.13 1021.69 1022.37 1023.15 1023.99 1024.84 1025.67 1026.43 1027.12 1027.76 1028.37 1028.98 1029.59
1015.10 1015.16 1015.38 1015.77 1016.33 1017.01 1017.73 1018.37 1018.83 1019.01 1018.83 1018.28 1017.41 1016.30 1015.08 1013.91 1012.95 1012.33 1012.12 1012.34 1012.94 1013.84 1014.92 1016.05 1017.11 1018.02 1018.75 1019.31 1019.74 1020.11 1020.49 1020.95 1021.50 1022.17 1022.93 1023.75 1024.57 1025.37 1026.13 1026.83 1027.49 1028.14 1028.78 1029.45
1014.47 1014.65 1014.94 1015.34 1015.85 1016.40 1016.94 1017.37 1017.62 1017.61 1017.31 1016.72 1015.89 1014.90 1013.88 1012.96 1012.27 1011.88 1011.87 1012.22 1012.89 1013.80 1014.84 1015.88 1016.86 1017.69 1018.37 1018.90 1019.34 1019.74 1020.16 1020.65 1021.24 1021.93 1022.69 1023.50 1024.31 1025.10 1025.84 1026.55 1027.23 1027.89 1028.57 1029.25
1013.82 1014.12 1014.47 1014.86 1015.27 1015.67 1015.99 1016.18 1016.19 1015.99 1015.56 1014.93 1014.15 1013.30 1012.49 1011.81 1011.37 1011.21 1011.37 1011.83 1012.55 1013.43 1014.41 1015.37 1016.25 1017.02 1017.66 1018.20 1018.67 1019.13 1019.63 1020.19 1020.85 1021.58 1022.37 1023.19 1024.01 1024.79 1025.54 1026.26 1026.94 1027.62 1028.30 1028.98
1013.10 1013.49 1013.88 1014.23 1014.53 1014.75 1014.84 1014.79 1014.57 1014.18 1013.64 1012.98 1012.25 1011.54 1010.92 1010.46 1010.24 1010.26 1010.56 1011.09 1011.81 1012.65 1013.54 1014.41 1015.22 1015.94 1016.58 1017.16 1017.70 1018.26 1018.87 1019.54 1020.29 1021.10 1021.94 1022.79 1023.63 1024.43 1025.19 1025.91 1026.60 1027.28 1027.96 1028.64
1012.24 1012.70 1013.08 1013.38 1013.56 1013.60 1013.49 1013.22 1012.81 1012.27 1011.64 1010.97 1010.31 1009.72 1009.26 1008.99 1008.92 1009.08 1009.44 1009.99 1010.67 1011.44 1012.24 1013.03 1013.79 1014.49 1015.16 1015.81 1016.47 1017.16 1017.90 1018.71 1019.58 1020.48 1021.39 1022.29 1023.16 1023.98 1024.75 1025.48 1026.18 1026.87 1027.54 1028.22
1011.23 1011.69 1012.05 1012.27 1012.33 1012.23 1011.95 1011.53 1010.98 1010.35 1009.69 1009.04 1008.46 1007.98 1007.65 1007.50 1007.54 1007.75 1008.13 1008.64 1009.25 1009.93 1010.64 1011.36 1012.07 1012.79 1013.52 1014.27 1015.07 1015.92 1016.82 1017.78 1018.76 1019.76 1020.74 1021.69 1022.58 1023.42 1024.21 1024.96 1025.67 1026.37 1027.05 1027.73
1010.07 1010.47 1010.77 1010.91 1010.88 1010.68 1010.31 1009.81 1009.21 1008.57 1007.93 1007.34 1006.84 1006.47 1006.24 1006.17 1006.25 1006.46 1006.80 1007.23 1007.74 1008.31 1008.93 1009.59 1010.29 1011.04 1011.85 1012.72 1013.66 1014.67 1015.73 1016.82 1017.91 1018.99 1020.03 1021.02 1021.94 1022.79 1023.60 1024.36 1025.09 1025.80 1026.50 1027.19
1008.77 1009.09 1009.30 1009.38 1009.30 1009.06 1008.67 1008.18 1007.62 1007.04 1006.49 1006.01 1005.62 1005.34 1005.19 1005.15 1005.23 1005.40 1005.66 1005.98 1006.38 1006.83 1007.36 1007.97 1008.67 1009.47 1010.36 1011.35 1012.43 1013.57 1014.75 1015.94 1017.12 1018.25 1019.32 1020.33 1021.26 1022.12 1022.93 1023.71 1024.47 1025.20 1025.93 1026.63
1007.39 1007.61 1007.76 1007.79 1007.71 1007.49 1007.18 1006.78 1006.34 1005.90 1005.50 1005.15 1004.88 1004.70 1004.60 1004.58 1004.62 1004.72 1004.88 1005.09 1005.36 1005.72 1006.17 1006.74 1007.44 1008.28 1009.24 1010.32 1011.49 1012.73 1013.99 1015.24 1016.45 1017.60 1018.68 1019.67 1020.59 1021.46 1022.27 1023.06 1023.84 1024.60 1025.35 1026.07
1005.99 1006.14 1006.25 1006.28 1006.25 1006.12 1005.94 1005.70 1005.44 1005.19 1004.97 1004.79 1004.65 1004.56 1004.51 1004.49 1004.49 1004.51 1004.57 1004.67 1004.84 1005.11 1005.50 1006.04 1006.74 1007.59 1008.60 1009.73 1010.95 1012.22 1013.50 1014.75 1015.95 1017.08 1018.12 1019.08 1019.98 1020.83 1021.65 1022.45 1023.24 1024.02 1024.78 1025.52
1004.67 1004.77 1004.88 1004.97 1005.02 1005.04 1005.03 1005.00 1004.95 1004.91 1004.88 1004.87 1004.86 1004.86 1004.85 1004.82 1004.79 1004.75 1004.73 1004.75 1004.85 1005.05 1005.40 1005.91 1006.60 1007.45 1008.46 1009.58 1010.79 1012.03 1013.27 1014.48 1015.62 1016.68 1017.66 1018.58 1019.44 1020.27 1021.08 1021.88 1022.68 1023.47 1024.23 1024.97
1003.49 1003.60 1003.75 1003.92 1004.11 1004.29 1004.47 1004.65 1004.82 1004.99 1005.14 1005.28 1005.38 1005.46 1005.49 1005.47 1005.42 1005.35 1005.29 1005.27 1005.33 1005.50 1005.83 1006.32 1006.98 1007.81 1008.77 1009.84 1010.98 1012.14 1013.28 1014.38 1015.42 1016.39 1017.30 1018.16 1018.98 1019.78 1020.58 1021.38 1022.17 1022.95 1023.70 1024.41
1002.53 1002.68 1002.91 1003.19 1003.52 1003.87 1004.23 1004.60 1004.96 1005.29 1005.59 1005.85 1006.06 1006.20 1006.27 1006.28 1006.24 1006.18 1006.12 1006.10 1006.17 1006.34 1006.66 1007.14 1007.77 1008.54 1009.43 1010.41 1011.42 1012.45 1013.45 1014.42 1015.33 1016.19 1017.02 1017.81 1018.59 1019.37 1020.15 1020.94 1021.72 1022.48 1023.19 1023.85
1001.87 1002.09 1002.40 1002.79 1003.25 1003.73 1004.24 1004.75 1005.24 1005.70 1006.10 1006.45 1006.72 1006.92 1007.04 1007.09 1007.10 1007.08 1007.07 1007.11 1007.22 1007.44 1007.78 1008.25 1008.85 1009.55 1010.34 1011.18 1012.04 1012.90 1013.74 1014.54 1015.32 1016.07 1016.80 1017.54 1018.28 1019.04 1019.81 1020.58 1021.34 1022.06 1022.72 1023.31
1001.57 1001.86 1002.25 1002.72 1003.26 1003.84 1004.43 1005.02 1005.59 1006.11 1006.57 1006.96 1007.28 1007.53 1007.70 1007.82 1007.90 1007.98 1008.06 1008.19 1008.39 1008.68 1009.05 1009.53 1010.09 1010.71 1011.38 1012.07 1012.76 1013.44 1014.11 1014.75 1015.39 1016.02 1016.68 1017.36 1018.07 1018.81 1019.56 1020.31 1021.04 1021.72 1022.33 1022.85
1001.70 1002.04 1002.47 1002.99 1003.56 1004.17 1004.78 1005.39 1005.96 1006.49 1006.97 1007.38 1007.73 1008.02 1008.26 1008.46 1008.65 1008.84 1009.05 1009.31 1009.62 1009.99 1010.42 1010.90 1011.42 1011.96 1012.51 1013.05 1013.57 1014.08 1014.57 1015.05 1015.56 1016.09 1016.67 1017.30 1017.98 1018.70 1019.44 1020.17 1020.87 1021.51 1022.06 1022.52
Thickness
5667 5657 5655 5660 5664 5667 5663 5660 5662 5667 5677 5667 5664 5671 5679 5674 5670 5670 5669 5669 5671 5672 5665 5659 5656 5654 5653 5652 5651 5650 5649 5646 5644 5641 5637 5631 5626 5623 5621 5619 5618 5617 5614 5611
5648 5649 5664 5665 5661 5659 5657 5653 5652 5659 5668 5658 5657 5661 5673 5674 5671 5675 5678 5679 5679 5670 5658 5655 5651 5649 5649 5648 5647 5645 5643 5641 5639 5637 5632 5626 5619 5614 5611 5609 5607 5605 5604 5601
5645 5658 5663 5656 5654 5650 5648 5644 5646 5646 5656 5656 5648 5647 5663 5676 5674 5677 5681 5685 5683 5677 5668 5658 5651 5647 5645 5644 5643 5642 5638 5635 5632 5629 5624 5617 5611 5605 5600 5597 5595 5593 5592 5590
5640 5654 5655 5649 5648 5645 5641 5650 5647 5644 5636 5628 5633 5622 5654 5668 5672 5677 5682 5682 5682 5679 5671 5659 5652 5646 5644 5641 5638 5635 5632 5629 5625 5622 5618 5614 5608 5600 5593 5589 5585 5582 5580 5577
5638 5646 5647 5645 5649 5645 5643 5649 5644 5638 5627 5616 5620 5614 5640 5661 5664 5677 5687 5689 5687 5682 5673 5663 5656 5649 5642 5636 5632 5629 5625 5621 5617 5614 5611 5608 5601 5594 5585 5579 5575 5571 5567 5564
5638 5644 5646 5650 5651 5646 5639 5631 5623 5612 5608 5599 5617 5612 5630 5651 5669 5681 5692 5693 5687 5680 5672 5661 5651 5641 5634 5629 5626 5622 5618 5613 5609 5605 5601 5599 5593 5585 5577 5570 5565 5560 5555 5550
5624 5631 5638 5642 5634 5631 5630 5614 5595 5593 5584 5597 5614 5611 5637 5660 5675 5684 5691 5691 5682 5674 5664 5653 5644 5637 5631 5625 5621 5616 5612 5606 5602 5597 5592 5588 5585 5580 5574 5566 5558 5551 5544 5537
5605 5614 5626 5630 5632 5622 5619 5616 5595 5584 5584 5589 5598 5601 5637 5658 5666 5670 5672 5674 5671 5662 5656 5649 5643 5636 5628 5621 5615 5610 5606 5600 5594 5589 5584 5578 5574 5570 5564 5557 5550 5543 5536 5528
5607 5611 5624 5624 5627 5623 5605 5604 5613 5593 5577 5571 5589 5610 5630 5649 5655 5660 5663 5663 5660 5655 5650 5643 5635 5627 5621 5614 5609 5604 5599 5593 5587 5581 5575 5568 5563 5559 5553 5546 5538 5531 5523 5516
5606 5598 5607 5608 5611 5612 5608 5601 5585 5581 5573 5573 5591 5604 5626 5642 5653 5660 5657 5656 5655 5646 5638 5631 5624 5618 5611 5605 5599 5594 5591 5586 5579 5573 5567 5561 5553 5548 5542 5535 5526 5519 5511 5504
5599 5592 5586 5587 5594 5597 5595 5591 5590 5583 5576 5573 5581 5618 5641 5651 5656 5655 5657 5658 5650 5638 5631 5623 5615 5606 5599 5592 5588 5585 5581 5576 5570 5564 5558 5551 5543 5537 5530 5523 5515 5507 5499 5492
5593 5585 5574 5577 5587 5593 5592 5591 5587 5578 5573 5577 5594 5631 5647 5647 5650 5650 5651 5651 5641 5630 5621 5612 5603 5594 5587 5583 5579 5576 5573 5568 5563 5556 5549 5542 5534 5527 5520 5512 5504 5496 5488 5479
5585 5571 5562 5566 5570 5573 5576 5581 5586 5588 5583 5582 5588 5623 5631 5632 5638 5639 5639 5638 5628 5618 5609 5601 5593 5587 5582 5577 5573 5569 5565 5560 5553 5547 5540 5532 5526 5519 5511 5502 5493 5484 5475 5466
5585 5568 5569 5579 5586 5574 5570 5576 5582 5577 5578 5591 5608 5629 5622 5623 5624 5630 5630 5626 5614 5608 5602 5594 5588 5583 5578 5573 5568 5563 5558 5552 5544 5538 5532 5525 5519 5511 5502 5492 5482 5473 5463 5453
5569 5561 5571 5586 5588 5572 5572 5574 5575 5578 5591 5590 5616 5625 5638 5620 5621 5623 5621 5613 5602 5596 5593 5590 5587 5582 5574 5568 5563 5559 5553 5546 5538 5530 5524 5518 5509 5499 5489 5480 5470 5460 5450 5440
5557 5552 5558 5564 5575 5563 5558 5569 5581 5582 5583 5589 5601 5627 5642 5622 5618 5617 5614 5606 5598 5594 5592 5591 5587 5580 5574 5569 5563 5556 5549 5541 5531 5523 5516 5506 5496 5486 5477 5467 5457 5446 5436 5426
5540 5538 5539 5554 5562 5537 5545 5586 5582 5574 5581 5584 5593 5630 5624 5608 5607 5614 5615 5606 5602 5601 5600 5595 5591 5585 5579 5572 5564 5554 5546 5532 5521 5513 5503 5494 5485 5475 5465 5454 5443 5434 5424 5413
5537 5531 5531 5539 5535 5540 5582 5605 5584 5576 5581 5583 5593 5611 5606 5604 5608 5611 5613 5606 5606 5607 5604 5598 5590 5585 5578 5567 5555 5543 5531 5521 5511 5501 5491 5482 5473 5462 5451 5441 5432 5422 5411 5400
5541 5533 5530 5531 5539 5547 5574 5590 5582 5571 5580 5601 5596 5603 5603 5594 5583 5601 5606 5603 5607 5606 5602 5598 5592 5585 5573 5559 5547 5533 5520 5509 5499 5491 5482 5472 5462 5450 5439 5430 5421 5410 5398 5387
5533 5533 5528 5530 5536 5544 5581 5589 5577 5564 5572 5615 5590 5593 5597 5581 5568 5606 5612 5599 5598 5597 5594 5589 5579 5569 5559 5548 5534 5520 5509 5498 5491 5483 5473 5460 5449 5440 5430 5420 5408 5397 5386 5376
5527 5525 5529 5533 5535 5542 5569 5561 5557 5551 5583 5586 5581 5586 5584 5578 5584 5594 5586 5582 5579 5577 5573 5567 5561 5555 5546 5534 5521 5509 5499 5491 5484 5470 5457 5446 5437 5429 5419 5407 5395 5384 5372 5360
5527 5526 5528 5529 5532 5544 5552 5537 5550 5557 5549 5547 5550 5552 5555 5557 5555 5552 5552 5549 5548 5547 5546 5544 5539 5532 5524 5515 5506 5496 5487 5480 5465 5454 5443 5434 5424 5414 5403 5392 5380 5369 5357 5345
5520 5525 5528 5528 5531 5523 5516 5523 5517 5518 5519 5520 5522 5524 5527 5528 5526 5525 5523 5521 5521 5521 5518 5516 5512 5504 5497 5492 5488 5480 5471 5459 5449 5438 5429 5419 5408 5398 5389 5378 5366 5352 5341 5331
5496 5494 5503 5504 5499 5495 5492 5492 5492 5494 5496 5498 5501 5503 5506 5505 5503 5500 5497 5496 5495 5492 5490 5487 5485 5479 5471 5467 5463 5458 5449 5441 5432 5422 5412 5402 5392 5381 5371 5361 5351 5339 5328 5317
5479 5475 5483 5488 5478 5473 5475 5477 5477 5474 5475 5478 5480 5482 5483 5483 5481 5479 5475 5472 5469 5467 5464 5462 5460 5455 5447 5441 5436 5431 5426 5421 5412 5403 5392 5383 5374 5364 5353 5343 5334 5325 5315 5306
5453 5462 5472 5478 5470 5469 5471 5467 5462 5460 5459 5460 5462 5462 5461 5462 5461 5457 5452 5448 5446 5442 5439 5436 5433 5428 5421 5416 5410 5406 5403 5399 5392 5381 5371 5362 5352 5342 5333 5322 5310 5305 5295 5287